Retour au catalogue

COSMOS 2540

ActifNavigationSSO
NORAD 44517·PAYLOAD·🇷🇺 Russia

Lancé Aug 30, 2019 depuis Plesetsk Cosmodrome

Loading…

Prochains Passages (prochaines 24 heures)

TLE

FraisSource: Space-Track

Époque: Sep 14, 2026, 13:31 UTC

1 44517U 19057A   26257.56341896  .00000037  00000-0  70466-4 0  9994
2 44517  99.2084 267.5997 0014743 292.9205  67.0395 13.85961090356251

Suivez COSMOS 2540 en temps réel avec AllMySat

Download on the App Store